• Processing (Info)

  • MPEC 2013-T64 : 2013 TX68

    The following Minor Planet Electronic Circular may be linked-to from your own Web pages, but must not otherwise be redistributed electronically.

    A form allowing access to any MPEC is at the bottom of this page.


    Read MPEC 2013-T63 Read MPEC 2013-T65


    M.P.E.C. 2013-T64                                Issued 2013 Oct. 7, 17:28 UT
    
         The Minor Planet Electronic Circulars contain information on unusual
             minor planets and routine data on comets.  They are published
       on behalf of Commission 20 of the International Astronomical Union by the
              Minor Planet Center, Smithsonian Astrophysical Observatory,
                              Cambridge, MA 02138, U.S.A.
    
                 Prepared using the Tamkin Foundation Computer Network
    
                                  MPC@CFA.HARVARD.EDU
                URL http://www.minorplanetcenter.net/    ISSN 1523-6714
    
                                       2013 TX68
    
    Observations:
         K13T68X* C2013 10 06.25997 00 19 57.36 -07 32 42.6          19.7 VqET064703
         K13T68X  C2013 10 06.26500 00 19 56.42 -07 33 16.8          19.5 VqET064703
         K13T68X  C2013 10 06.27008 00 19 55.50 -07 33 48.9          19.5 VqET064703
         K13T68X  C2013 10 06.27513 00 19 54.55 -07 34 22.7          19.9 VqET064703
         K13T68X KC2013 10 06.33633 00 19 44.81 -07 41 14.2          19.5 RtET064G58
         K13T68X KC2013 10 06.33900 00 19 44.32 -07 41 31.4          19.6 RtET064G58
         K13T68X  C2013 10 06.34040 00 19 42.40 -07 41 29.8          19.1 VqET064703
         K13T68X KC2013 10 06.34178 00 19 43.83 -07 41 49.8          19.3 RtET064G58
         K13T68X KC2013 10 06.34455 00 19 43.28 -07 42 08.4          19.5 RtET064G58
         K13T68X  C2013 10 06.34713 00 19 41.16 -07 42 14.4          20.6 VqET064703
         K13T68X KC2013 10 06.34722 00 19 42.81 -07 42 25.7          19.4 RtET064G58
         K13T68X  C2013 10 06.35388 00 19 39.78 -07 42 58.8          20.2 VqET064703
         K13T68X  C2013 10 06.36068 00 19 38.59 -07 43 42.3                qET064703
         K13T68X KC2013 10 06.93897 00 18 18.45 -08 53 56.8                qET064J95
         K13T68X KC2013 10 06.94267 00 18 17.73 -08 54 25.8          19.7 RqET064J95
         K13T68X WC2013 10 06.94640 00 18 16.99 -08 54 53.8                qET064J95
         K13T68X |C2013 10 07.09719 00 17 55.00 -09 11 37.3          20.0 VuET064807
         K13T68X |C2013 10 07.10109 00 17 54.12 -09 12 09.3          20.1 VuET064807
         K13T68X |C2013 10 07.10498 00 17 53.23 -09 12 41.4          20.0 VuET064807
         K13T68X KC2013 10 07.29059 00 17 15.67 -09 41 40.1          20.5 RqET064448
         K13T68X KC2013 10 07.30995 00 17 11.04 -09 44 27.9          19.8 RqET064448
         K13T68X KC2013 10 07.32892 00 17 06.49 -09 47 12.6          19.7 RqET064448
    
    Observer details:
    448 Desert Moon Observatory.  Observer B. L. Stevens.  0.3-m
        Schmidt-Cassegrain + CCD.
    703 Catalina Sky Survey.  Observer S. M. Larson.  Measurers A. Boattini,
        E. J. Christensen, A. R. Gibbs, A. D. Grauer, R. E. Hill, J. A. Johnson,
        R. A. Kowalski, S. M. Larson, F. C. Shelly.  0.68-m Schmidt + CCD.
    807 Cerro Tololo.  Observers T. Linder, R. Holmes.  Measurers T. Linder,
        R. Holmes, K. Baker, S. Momaly.  0.41-m f/11 Ritchey-Chretien + CCD.
    G58 Chabot Space and Science Center, Oakland.  Observer G. McKeegan.  0.9-m
        f/4.5 Cassegrain + CCD.
    J95 Great Shefford.  Observer P. Birtwhistle.  0.40-m f/6.0 Schmidt-Cassegrain
        + CCD.
    
    Orbital elements:
    2013 TX68                                                Earth MOID = 0.0003 AU
    Epoch 2013 Nov. 4.0 TT = JDT 2456600.5                  MPC
    M 348.20841              (2000.0)            P               Q
    n   0.46085487     Peri.  287.92106     -0.04563755     -0.99894566
    a   1.6599433      Node   164.69212     +0.92351530     -0.04409033
    e   0.5511326      Incl.    1.08050     +0.38083684     -0.01279113
    P   2.14           H   25.3           G   0.15           U   6
    Residuals in seconds of arc
    131006 703  0.4-  0.6+    131006 G58  0.4-  0.0     131007 807  0.1+  0.2+
    131006 703  0.5-  0.9-    131006 703  1.1+  0.3-    131007 807  0.1+  0.3+
    131006 703  0.1-  0.1+    131006 G58  0.0   0.4+    131007 807  0.1-  0.2+
    131006 703  0.2-  0.8-    131006 703  0.9-  0.1-    131007 448  0.5-  0.0
    131006 G58  0.3-  0.1-    131006 703  0.1+  1.3+    131007 448  0.1-  0.1+
    131006 G58  0.2-  0.3+    131006 J95  0.4-  0.6-    131007 448  0.1-  0.5+
    131006 703  0.9+  0.1-    131006 J95  0.1+  0.6-
    131006 G58  0.2+  0.3+    131006 J95  0.3+  0.7+
    
    Ephemeris:
    2013 TX68                a,e,i = 1.66, 0.55, 1                   q = 0.7451
    Date    TT    R. A. (2000) Decl.     Delta      r     Elong.  Phase     V
    2013 09 07    00 29 23.7 +02 48 49   0.3262  1.3134   156.5    17.8    24.4
    ...
    2013 09 22    00 30 23.1 +01 18 14   0.1806  1.1826   171.3     7.4    22.5
    ...
    2013 09 30    00 27 29.3 -01 21 49   0.1108  1.1121   175.9     3.7    21.1
    ...
    2013 10 06    00 20 29.8 -07 03 57   0.06142 1.0596   166.2    13.0    20.1
    2013 10 07    00 18 07.2 -08 59 30   0.05346 1.0509   163.5    15.7    19.9
    2013 10 08    00 14 54.7 -11 34 15   0.04561 1.0422   160.1    19.1    19.7
    ...
    2013 10 14    15 32 03.7 -67 35 29   0.01489 0.9910    63.7   115.5    20.7
    ...
    2013 10 22    12 48 26.2 -15 49 58   0.07216 0.9257    14.8   164.0    32.0
    ...
    2013 11 06    12 46 41.0 -09 19 48   0.2031  0.8205    29.4   143.6    28.8
    
    A. U. Tomatic                (C) Copyright 2013 MPC           M.P.E.C. 2013-T64
    

    Read MPEC 2013-T63 Read MPEC 2013-T65


    MPEC number:

    Enter an MPEC number in one of the following forms:

    • 1997-B01 (the full form)
    • J97B01 (the packed version of the full form)
    • B01 (the abbreviated form)